Year,Month,Day,Hour,Minute,Value (Times are PST for temperature in C)
2014,01,11,01,13,8.70
2014,01,11,01,14,8.70
2014,01,11,01,15,8.70
2014,01,11,01,16,8.70
2014,01,11,01,17,8.80
2014,01,11,01,18,8.80
2014,01,11,01,19,8.80
2014,01,11,01,20,8.80
2014,01,11,01,21,8.80
2014,01,11,01,22,8.80
2014,01,11,01,23,8.80
2014,01,11,01,24,8.80
2014,01,11,01,25,8.80
2014,01,11,01,26,8.80
2014,01,11,01,27,8.80
2014,01,11,01,28,8.90
2014,01,11,01,29,8.90
2014,01,11,01,30,8.90
2014,01,11,01,31,8.90
2014,01,11,01,32,8.90
2014,01,11,01,33,8.90
2014,01,11,01,34,8.90
2014,01,11,01,35,8.90
2014,01,11,01,36,8.90
2014,01,11,01,37,9.00
2014,01,11,01,38,9.00
2014,01,11,01,39,9.10
2014,01,11,01,40,9.10
2014,01,11,01,41,9.10
2014,01,11,01,42,9.10
2014,01,11,01,43,9.20
2014,01,11,01,44,9.20
2014,01,11,01,45,9.20
2014,01,11,01,46,9.20
2014,01,11,01,47,9.30
2014,01,11,01,48,9.30
2014,01,11,01,49,9.30
2014,01,11,01,50,9.30
2014,01,11,01,51,9.30
2014,01,11,01,52,9.40
2014,01,11,01,53,9.40
2014,01,11,01,54,9.50
2014,01,11,01,55,9.50
2014,01,11,01,56,9.50
2014,01,11,01,57,9.60
2014,01,11,01,58,9.60
2014,01,11,01,59,9.60
2014,01,11,02,00,9.70
2014,01,11,02,01,9.70
2014,01,11,02,02,9.70
2014,01,11,02,03,9.70
2014,01,11,02,04,9.70
2014,01,11,02,05,9.70
2014,01,11,02,06,9.70
2014,01,11,02,07,9.70
2014,01,11,02,08,9.80
2014,01,11,02,09,9.80
2014,01,11,02,10,9.80
2014,01,11,02,11,9.80
2014,01,11,02,12,9.80
2014,01,11,02,13,9.80
2014,01,11,02,14,9.90
2014,01,11,02,15,9.90
2014,01,11,02,16,10.00
2014,01,11,02,17,10.00
2014,01,11,02,18,10.10
2014,01,11,02,19,10.20
2014,01,11,02,20,10.30
2014,01,11,02,21,10.40
2014,01,11,02,22,10.40
2014,01,11,02,23,10.40
2014,01,11,02,24,10.50
2014,01,11,02,25,10.70
2014,01,11,02,26,10.90
2014,01,11,02,27,11.10
2014,01,11,02,28,11.20
2014,01,11,02,29,11.40
2014,01,11,02,30,11.50
2014,01,11,02,31,11.50
2014,01,11,02,32,11.60
2014,01,11,02,33,11.70
2014,01,11,02,34,11.70
2014,01,11,02,35,11.70
2014,01,11,02,36,11.70
2014,01,11,02,37,11.70
2014,01,11,02,38,11.70
2014,01,11,02,39,11.70
2014,01,11,02,40,11.70
2014,01,11,02,41,11.70
2014,01,11,02,42,11.70
2014,01,11,02,43,11.70
2014,01,11,02,44,11.80
2014,01,11,02,45,11.80
2014,01,11,02,46,11.80
2014,01,11,02,47,11.70
2014,01,11,02,48,11.70
2014,01,11,02,49,11.60
2014,01,11,02,50,11.60
2014,01,11,02,51,11.50
2014,01,11,02,52,11.40
2014,01,11,02,53,11.30
2014,01,11,02,54,11.30
2014,01,11,02,55,11.20
2014,01,11,02,56,11.10
2014,01,11,02,57,11.00
2014,01,11,02,58,11.00
2014,01,11,02,59,10.90
2014,01,11,03,00,10.80
2014,01,11,03,01,10.80
2014,01,11,03,02,10.80
2014,01,11,03,03,10.80
2014,01,11,03,04,10.80
2014,01,11,03,05,10.80
2014,01,11,03,06,10.70
2014,01,11,03,07,10.70
2014,01,11,03,08,10.70
2014,01,11,03,09,10.60
2014,01,11,03,10,10.50
2014,01,11,03,11,10.50
2014,01,11,03,12,10.40
2014,01,11,03,13,10.40
2014,01,11,03,14,10.30
2014,01,11,03,15,10.30
2014,01,11,03,16,10.20
2014,01,11,03,17,10.20
2014,01,11,03,18,10.10
2014,01,11,03,19,10.10
2014,01,11,03,20,10.10
2014,01,11,03,21,10.10
2014,01,11,03,22,10.10
2014,01,11,03,23,10.00
2014,01,11,03,24,10.00
2014,01,11,03,25,10.00
2014,01,11,03,26,10.00
2014,01,11,03,27,9.90
2014,01,11,03,28,9.90
2014,01,11,03,29,9.90
2014,01,11,03,30,9.90
2014,01,11,03,31,9.90
2014,01,11,03,32,9.90
2014,01,11,03,33,9.80
2014,01,11,03,34,9.80
2014,01,11,03,35,9.80
2014,01,11,03,36,9.80
2014,01,11,03,37,9.80
2014,01,11,03,38,9.80
2014,01,11,03,39,9.80
2014,01,11,03,40,9.80
2014,01,11,03,41,9.80
2014,01,11,03,42,9.80
2014,01,11,03,43,9.70
2014,01,11,03,44,9.70
2014,01,11,03,45,9.70
2014,01,11,03,46,9.70
2014,01,11,03,47,9.70
2014,01,11,03,48,9.70
2014,01,11,03,49,9.60
2014,01,11,03,50,9.60
2014,01,11,03,51,9.60
2014,01,11,03,52,9.60
2014,01,11,03,53,9.60
2014,01,11,03,54,9.50
2014,01,11,03,55,9.50
2014,01,11,03,56,9.40
2014,01,11,03,57,9.40
2014,01,11,03,58,9.30
2014,01,11,03,59,9.30
2014,01,11,04,00,9.30
2014,01,11,04,01,9.30
2014,01,11,04,02,9.30
2014,01,11,04,03,9.30
2014,01,11,04,04,9.20
2014,01,11,04,05,9.20
2014,01,11,04,06,9.20
2014,01,11,04,07,9.20
2014,01,11,04,08,9.10
2014,01,11,04,09,9.10
2014,01,11,04,10,9.00
2014,01,11,04,11,9.00
2014,01,11,04,12,9.00
2014,01,11,04,13,9.00
2014,01,11,04,14,9.00
2014,01,11,04,15,9.00
2014,01,11,04,16,8.90
2014,01,11,04,17,8.90
2014,01,11,04,18,8.90
2014,01,11,04,19,8.90
2014,01,11,04,20,8.90
2014,01,11,04,21,8.90
2014,01,11,04,22,8.80
2014,01,11,04,23,8.80
2014,01,11,04,24,8.80
2014,01,11,04,25,8.80
2014,01,11,04,26,8.70
2014,01,11,04,27,8.70
2014,01,11,04,28,8.80
2014,01,11,04,29,8.80
2014,01,11,04,30,8.80
2014,01,11,04,31,8.80
2014,01,11,04,32,8.80
2014,01,11,04,33,8.80
2014,01,11,04,34,8.80
2014,01,11,04,35,8.80
2014,01,11,04,36,8.80
2014,01,11,04,37,8.80
2014,01,11,04,38,8.80
2014,01,11,04,39,8.80
2014,01,11,04,40,8.80
2014,01,11,04,41,8.80
2014,01,11,04,42,8.80
2014,01,11,04,43,8.80
2014,01,11,04,44,8.70
2014,01,11,04,45,8.70
2014,01,11,04,46,8.80
2014,01,11,04,47,8.80
2014,01,11,04,48,8.80
2014,01,11,04,49,8.80
2014,01,11,04,50,8.80
2014,01,11,04,51,8.80
2014,01,11,04,52,8.80
2014,01,11,04,53,8.80
2014,01,11,04,54,8.80
2014,01,11,04,55,8.80
2014,01,11,04,56,8.80
2014,01,11,04,57,8.80
2014,01,11,04,58,8.90
2014,01,11,04,59,8.90
2014,01,11,05,00,8.90
2014,01,11,05,01,8.90
2014,01,11,05,02,8.80
2014,01,11,05,03,8.80
2014,01,11,05,04,8.80
2014,01,11,05,05,8.70
2014,01,11,05,06,8.70
2014,01,11,05,07,8.70
2014,01,11,05,08,8.70
2014,01,11,05,09,8.70
2014,01,11,05,10,8.70
2014,01,11,05,11,8.70
2014,01,11,05,12,8.70
2014,01,11,05,13,8.70
2014,01,11,05,14,8.70
2014,01,11,05,15,8.70
2014,01,11,05,16,8.70
2014,01,11,05,17,8.70
2014,01,11,05,18,8.70
2014,01,11,05,19,8.70
2014,01,11,05,20,8.70
2014,01,11,05,21,8.80
2014,01,11,05,22,8.80
2014,01,11,05,23,8.80
2014,01,11,05,24,8.80
2014,01,11,05,25,8.80
2014,01,11,05,26,8.80
2014,01,11,05,27,8.80
2014,01,11,05,28,8.80
2014,01,11,05,29,8.80
2014,01,11,05,30,8.80
2014,01,11,05,31,8.80
2014,01,11,05,32,8.80
2014,01,11,05,33,8.80
2014,01,11,05,34,8.80
2014,01,11,05,35,8.80
2014,01,11,05,36,8.80
2014,01,11,05,37,8.80
2014,01,11,05,38,8.80
2014,01,11,05,39,8.70
2014,01,11,05,40,8.70
2014,01,11,05,41,8.60
2014,01,11,05,42,8.60
2014,01,11,05,43,8.60
2014,01,11,05,44,8.60
2014,01,11,05,45,8.60
2014,01,11,05,46,8.60
2014,01,11,05,47,8.60
2014,01,11,05,48,8.60
2014,01,11,05,49,8.60
2014,01,11,05,50,8.60
2014,01,11,05,51,8.60
2014,01,11,09,14,7.90
2014,01,11,09,15,7.90
2014,01,11,09,16,7.90
2014,01,11,09,17,7.90
2014,01,11,09,18,7.90
2014,01,11,09,19,7.90
2014,01,11,09,20,7.90
2014,01,11,09,21,7.90
2014,01,11,09,22,7.90
2014,01,11,09,23,7.90
2014,01,11,09,24,7.90
2014,01,11,09,25,7.90
2014,01,11,09,26,7.90
2014,01,11,09,27,7.90
2014,01,11,09,28,7.90
2014,01,11,09,29,7.90
2014,01,11,09,30,7.90
2014,01,11,09,31,7.90
2014,01,11,09,32,7.90
2014,01,11,09,33,7.90
2014,01,11,09,34,7.90
2014,01,11,09,35,7.80
2014,01,11,09,36,7.80
2014,01,11,09,37,7.80
2014,01,11,09,38,7.80
2014,01,11,09,39,7.80
2014,01,11,09,40,7.80
2014,01,11,09,41,7.80
2014,01,11,09,42,7.80
2014,01,11,09,43,7.80
2014,01,11,09,44,7.80
2014,01,11,09,45,7.80
2014,01,11,09,46,7.70
2014,01,11,09,47,7.70
2014,01,11,09,48,7.70
2014,01,11,09,49,7.70
2014,01,11,09,50,7.70
2014,01,11,09,51,7.70
2014,01,11,09,52,7.70
2014,01,11,09,53,7.70
2014,01,11,09,54,7.60
2014,01,11,09,55,7.60
2014,01,11,09,56,7.50
2014,01,11,09,57,7.50
2014,01,11,09,58,7.40
2014,01,11,09,59,7.40
2014,01,11,10,00,7.30
2014,01,11,10,01,7.30
2014,01,11,10,02,7.30
2014,01,11,10,03,7.20
2014,01,11,10,04,7.20
2014,01,11,10,05,7.20
2014,01,11,10,06,7.20
2014,01,11,10,07,7.20
2014,01,11,10,08,7.20
2014,01,11,10,09,7.20
2014,01,11,10,10,7.20
2014,01,11,10,11,7.20
2014,01,11,10,12,7.20
2014,01,11,10,13,7.20
2014,01,11,10,14,7.10
2014,01,11,10,15,7.10
2014,01,11,10,16,7.00
2014,01,11,10,17,7.00
2014,01,11,10,18,6.90
2014,01,11,10,19,6.90
2014,01,11,10,20,6.90
2014,01,11,10,21,6.90
2014,01,11,10,22,6.90
2014,01,11,10,23,6.80
2014,01,11,10,24,6.80
2014,01,11,10,25,6.80
2014,01,11,10,26,6.80
2014,01,11,10,27,6.80
2014,01,11,10,28,6.80
2014,01,11,10,29,6.80
2014,01,11,10,30,6.80
2014,01,11,10,31,6.80
2014,01,11,10,32,6.80
2014,01,11,10,33,6.70
2014,01,11,10,34,6.70
2014,01,11,10,35,6.70
2014,01,11,10,36,6.60
2014,01,11,10,37,6.60
2014,01,11,10,38,6.60
2014,01,11,10,39,6.60
2014,01,11,10,40,6.50
2014,01,11,10,41,6.50
2014,01,11,10,42,6.50
2014,01,11,10,43,6.40
2014,01,11,10,44,6.40
2014,01,11,10,45,6.30
2014,01,11,10,46,6.30
2014,01,11,10,47,6.30
2014,01,11,10,48,6.30
2014,01,11,10,49,6.30
2014,01,11,10,50,6.30
2014,01,11,10,51,6.30
2014,01,11,10,52,6.20
2014,01,11,10,53,6.20
2014,01,11,10,54,6.20
2014,01,11,10,55,6.20
2014,01,11,10,56,6.20
2014,01,11,10,57,6.20
2014,01,11,10,58,6.20
2014,01,11,10,59,6.20
2014,01,11,11,00,6.20
2014,01,11,11,01,6.20
2014,01,11,11,02,6.20
2014,01,11,11,03,6.20
2014,01,11,11,04,6.20
2014,01,11,11,05,6.20
2014,01,11,11,06,6.10
2014,01,11,11,07,6.10
2014,01,11,11,08,6.10
2014,01,11,11,09,6.10
2014,01,11,11,10,6.10
2014,01,11,11,11,6.10
2014,01,11,11,12,6.10
2014,01,11,11,13,6.10
2014,01,11,11,14,6.10
2014,01,11,11,15,6.10
2014,01,11,11,16,6.10
2014,01,11,11,17,6.10
2014,01,11,11,18,6.00
2014,01,11,11,19,6.00
2014,01,11,11,20,6.10
2014,01,11,11,21,6.10
2014,01,11,11,22,6.10
2014,01,11,11,23,6.10
2014,01,11,11,24,6.10
2014,01,11,11,25,6.10
2014,01,11,11,26,6.10
2014,01,11,11,27,6.10
2014,01,11,11,28,6.10
2014,01,11,11,29,6.10
2014,01,11,11,30,6.10
2014,01,11,11,31,6.10
2014,01,11,11,32,6.10
2014,01,11,11,33,6.10
2014,01,11,11,34,6.10
2014,01,11,11,35,6.10
2014,01,11,11,36,6.20
2014,01,11,11,37,6.20
2014,01,11,11,38,6.20
2014,01,11,11,39,6.20
2014,01,11,11,40,6.20
2014,01,11,11,41,6.20
2014,01,11,11,42,6.20
2014,01,11,11,43,6.20
2014,01,11,11,44,6.30
2014,01,11,11,45,6.30
2014,01,11,11,46,6.30
2014,01,11,11,47,6.40
2014,01,11,11,48,6.40
2014,01,11,11,49,6.40
2014,01,11,11,50,6.50
2014,01,11,11,51,6.50
2014,01,11,11,52,6.60
2014,01,11,11,53,6.60
2014,01,11,11,54,6.70
2014,01,11,11,55,6.70
2014,01,11,11,56,6.70
2014,01,11,11,57,6.80
2014,01,11,11,58,6.80
2014,01,11,11,59,6.90
2014,01,11,12,00,7.00
2014,01,11,12,01,7.00
2014,01,11,12,02,7.10
2014,01,11,12,03,7.20
2014,01,11,12,04,7.20
2014,01,11,12,05,7.30
2014,01,11,12,06,7.30
2014,01,11,12,07,7.30
2014,01,11,12,08,7.40
2014,01,11,12,09,7.40
2014,01,11,12,10,7.40
2014,01,11,12,11,7.40
2014,01,11,12,12,7.40
2014,01,11,12,13,7.40
2014,01,11,12,14,7.40
2014,01,11,12,15,7.40
2014,01,11,12,16,7.40
2014,01,11,12,17,7.40
2014,01,11,12,18,7.40
2014,01,11,12,19,7.40
2014,01,11,12,20,7.40
2014,01,11,12,21,7.50
2014,01,11,12,22,7.50
2014,01,11,12,23,7.50
2014,01,11,12,24,7.50
2014,01,11,12,25,7.50
2014,01,11,12,26,7.50
2014,01,11,12,27,7.50
2014,01,11,12,28,7.50
2014,01,11,12,29,7.50
2014,01,11,12,30,7.60
2014,01,11,12,31,7.60
2014,01,11,12,32,7.60
2014,01,11,12,33,7.60
2014,01,11,12,34,7.60
2014,01,11,12,35,7.60
2014,01,11,12,36,7.60
2014,01,11,12,37,7.60
2014,01,11,12,38,7.60
2014,01,11,12,39,7.60
2014,01,11,12,40,7.60
2014,01,11,12,41,7.60
2014,01,11,12,42,7.60
2014,01,11,12,43,7.60
2014,01,11,12,44,7.60
2014,01,11,12,45,7.60
2014,01,11,12,46,7.60
2014,01,11,12,47,7.60
2014,01,11,12,48,7.60
2014,01,11,12,49,7.60
2014,01,11,12,50,7.60
2014,01,11,12,51,7.60
2014,01,11,12,52,7.70
2014,01,11,12,53,7.70
2014,01,11,12,54,7.70
2014,01,11,12,55,7.70
2014,01,11,12,56,7.70
2014,01,11,12,57,7.70
2014,01,11,12,58,7.70
2014,01,11,12,59,7.80
2014,01,11,13,00,7.80
2014,01,11,13,01,7.80
2014,01,11,13,02,7.80
2014,01,11,13,03,7.90
2014,01,11,13,04,7.90
2014,01,11,13,05,7.90
2014,01,11,13,06,7.90
2014,01,11,13,07,7.90
2014,01,11,13,08,7.90
2014,01,11,13,09,7.90
2014,01,11,13,10,7.80
2014,01,11,13,11,7.80
2014,01,11,13,12,7.80
2014,01,11,13,13,7.80
2014,01,11,13,14,7.80
2014,01,11,13,15,7.80
2014,01,11,13,16,7.80
2014,01,11,13,17,7.70
2014,01,11,13,18,7.70
2014,01,11,13,19,7.70
2014,01,11,13,20,7.70
2014,01,11,13,21,7.70
2014,01,11,13,22,7.60
2014,01,11,13,23,7.60
2014,01,11,13,24,7.60
2014,01,11,13,25,7.60
2014,01,11,13,26,7.60
2014,01,11,13,27,7.60
2014,01,11,13,28,7.60
2014,01,11,13,29,7.60
2014,01,11,13,30,7.60
2014,01,11,13,31,7.50
2014,01,11,13,32,7.50
2014,01,11,13,33,7.50
2014,01,11,13,34,7.50
2014,01,11,13,35,7.50
2014,01,11,13,36,7.50
2014,01,11,13,37,7.50
2014,01,11,13,38,7.40
2014,01,11,13,39,7.40
2014,01,11,13,40,7.40
2014,01,11,13,41,7.40
2014,01,11,13,42,7.40
2014,01,11,13,43,7.40
2014,01,11,13,44,7.40
2014,01,11,13,45,7.40
2014,01,11,13,46,7.40
2014,01,11,13,47,7.40
2014,01,11,13,48,7.40
2014,01,11,13,49,7.40
2014,01,11,13,50,7.40
2014,01,11,13,51,7.40
2014,01,11,13,52,7.40
2014,01,11,13,53,7.40
2014,01,11,13,54,7.40
2014,01,11,13,55,7.40
2014,01,11,13,56,7.40
2014,01,11,13,57,7.40
2014,01,11,13,58,7.40
2014,01,11,13,59,7.40
2014,01,11,14,00,7.40
2014,01,11,14,01,7.40
2014,01,11,14,02,7.40
2014,01,11,14,03,7.40
2014,01,11,14,04,7.50
2014,01,11,14,05,7.50
2014,01,11,14,06,7.40
2014,01,11,14,07,7.40
2014,01,11,14,08,7.50
2014,01,11,14,09,7.40
2014,01,11,14,10,7.50
2014,01,11,14,11,7.40
2014,01,11,14,12,7.50
2014,01,11,14,13,7.50
2014,01,11,14,14,7.50
2014,01,11,14,15,7.50
2014,01,11,14,16,7.50
2014,01,11,14,17,7.60
2014,01,11,14,18,7.60
2014,01,11,14,19,7.60
2014,01,11,14,20,7.60
2014,01,11,14,21,7.60
2014,01,11,14,22,7.60
2014,01,11,14,23,7.60
2014,01,11,14,24,7.60
2014,01,11,14,25,7.60
2014,01,11,14,26,7.60
2014,01,11,14,27,7.60
2014,01,11,14,28,7.60
2014,01,11,14,29,7.70
2014,01,11,14,30,7.70
2014,01,11,14,31,7.70
2014,01,11,14,32,7.70
2014,01,11,14,33,7.70
2014,01,11,14,34,7.80
2014,01,11,14,35,7.80
2014,01,11,14,36,7.80
2014,01,11,14,37,7.90
2014,01,11,14,38,7.90
2014,01,11,14,39,7.90
2014,01,11,14,40,7.90
2014,01,11,14,41,7.90
2014,01,11,14,42,7.90
2014,01,11,14,43,7.90
2014,01,11,14,44,7.90
2014,01,11,14,45,7.90
2014,01,11,14,46,7.90
2014,01,11,14,47,7.90
2014,01,11,14,48,7.90
2014,01,11,14,49,7.90
2014,01,11,14,50,7.90
2014,01,11,14,51,7.90
2014,01,11,14,52,7.90
2014,01,11,14,53,7.90
2014,01,11,14,54,7.80
2014,01,11,14,55,7.80
2014,01,11,14,56,7.80
2014,01,11,14,57,7.80
2014,01,11,14,58,7.90
2014,01,11,14,59,7.90
2014,01,11,15,00,7.90
2014,01,11,15,01,7.90
2014,01,11,15,02,7.90
2014,01,11,15,03,7.90
2014,01,11,15,04,8.00
2014,01,11,15,05,8.00
2014,01,11,15,06,8.00
2014,01,11,15,07,8.00
2014,01,11,15,08,8.00
2014,01,11,15,09,8.10
2014,01,11,15,10,8.10
2014,01,11,15,11,8.10
2014,01,11,15,12,8.10
2014,01,11,15,13,8.10
2014,01,11,15,14,8.10
2014,01,11,15,15,8.10
2014,01,11,15,16,8.10
2014,01,11,15,17,8.10
2014,01,11,15,18,8.00
2014,01,11,15,19,8.00
2014,01,11,15,20,8.00
2014,01,11,15,21,8.00
2014,01,11,15,22,8.00
2014,01,11,15,23,8.00
2014,01,11,15,24,8.00
2014,01,11,15,25,7.90
2014,01,11,15,26,7.90
2014,01,11,15,27,7.90
2014,01,11,15,28,7.90
2014,01,11,15,29,7.90
2014,01,11,15,30,7.80
2014,01,11,15,31,7.80
2014,01,11,15,32,7.80
2014,01,11,15,33,7.80
2014,01,11,15,34,7.70
2014,01,11,15,35,7.70
2014,01,11,15,36,7.70
2014,01,11,15,37,7.60
2014,01,11,15,38,7.60
2014,01,11,15,39,7.60
2014,01,11,15,40,7.60
2014,01,11,15,41,7.60
2014,01,11,15,42,7.60
2014,01,11,15,43,7.60
2014,01,11,15,44,7.60
2014,01,11,15,45,7.60
2014,01,11,15,46,7.60
2014,01,11,15,47,7.60
2014,01,11,15,48,7.60
2014,01,11,15,49,7.60
2014,01,11,15,50,7.60
2014,01,11,15,51,7.60
2014,01,11,15,52,7.60
2014,01,11,15,53,7.60
2014,01,11,15,54,7.60
2014,01,11,15,55,7.60
2014,01,11,15,56,7.60
2014,01,11,15,57,7.60
2014,01,11,15,58,7.60
2014,01,11,15,59,7.60
2014,01,11,16,00,7.60
2014,01,11,16,01,7.60
2014,01,11,16,02,7.60
2014,01,11,16,03,7.60
2014,01,11,16,04,7.60
2014,01,11,16,05,7.50
2014,01,11,16,06,7.50
2014,01,11,16,07,7.50
2014,01,11,16,08,7.50
2014,01,11,16,09,7.50
2014,01,11,16,10,7.50
2014,01,11,16,11,7.50
2014,01,11,16,12,7.40
2014,01,11,16,13,7.40
2014,01,11,16,14,7.40
2014,01,11,16,15,7.40
2014,01,11,16,16,7.40
2014,01,11,16,17,7.40
2014,01,11,16,18,7.30
2014,01,11,16,19,7.30
2014,01,11,16,20,7.30
2014,01,11,16,21,7.30
2014,01,11,16,22,7.30
2014,01,11,16,23,7.20
2014,01,11,16,24,7.20
2014,01,11,16,25,7.20
2014,01,11,16,26,7.20
2014,01,11,16,27,7.20
2014,01,11,16,28,7.20
2014,01,11,16,29,7.20
2014,01,11,16,30,7.20
2014,01,11,16,31,7.20
2014,01,11,16,32,7.20
2014,01,11,16,33,7.20
2014,01,11,16,34,7.20
2014,01,11,16,35,7.20
2014,01,11,16,36,7.20
2014,01,11,16,37,7.20
2014,01,11,16,38,7.20
2014,01,11,16,39,7.20
2014,01,11,16,40,7.20
2014,01,11,16,41,7.20
2014,01,11,16,42,7.20
2014,01,11,16,43,7.20
2014,01,11,16,44,7.20
2014,01,11,16,45,7.20
2014,01,11,16,46,7.20
2014,01,11,16,47,7.10
2014,01,11,16,48,7.10
2014,01,11,16,49,7.10
2014,01,11,16,50,7.20
2014,01,11,16,51,7.20
2014,01,11,16,52,7.20
2014,01,11,16,53,7.20
2014,01,11,16,54,7.20
2014,01,11,16,55,7.20
2014,01,11,16,56,7.20
2014,01,11,16,57,7.10
2014,01,11,16,58,7.10
2014,01,11,16,59,7.10
2014,01,11,17,00,7.10
2014,01,11,17,01,7.10
2014,01,11,17,02,7.10
2014,01,11,17,03,7.10
2014,01,11,17,04,7.10
2014,01,11,17,05,7.10
2014,01,11,17,06,7.10
2014,01,11,17,07,7.10
2014,01,11,17,08,7.10
2014,01,11,17,09,7.10
2014,01,11,17,10,7.10
2014,01,11,17,11,7.10
2014,01,11,17,12,7.00
2014,01,11,17,13,7.00
2014,01,11,17,14,6.90
2014,01,11,17,15,6.90
2014,01,11,17,16,6.90
2014,01,11,17,17,6.80
2014,01,11,17,18,6.80
2014,01,11,17,19,6.70
2014,01,11,17,20,6.70
2014,01,11,17,21,6.70
2014,01,11,17,22,6.60
2014,01,11,17,23,6.60
2014,01,11,17,24,6.60
2014,01,11,17,25,6.60
2014,01,11,17,26,6.50
2014,01,11,17,27,6.50
2014,01,11,17,28,6.50
2014,01,11,17,29,6.40
2014,01,11,17,30,6.40
2014,01,11,17,31,6.40
2014,01,11,17,32,6.40
2014,01,11,17,33,6.30
2014,01,11,17,34,6.30
2014,01,11,17,35,6.30
2014,01,11,17,36,6.30
2014,01,11,17,37,6.30
2014,01,11,17,38,6.30
2014,01,11,17,39,6.30
2014,01,11,17,40,6.30
2014,01,11,17,41,6.30
2014,01,11,17,42,6.40
2014,01,11,17,43,6.40
2014,01,11,17,44,6.40
2014,01,11,17,45,6.50
2014,01,11,17,46,6.50
2014,01,11,17,47,6.50
2014,01,11,17,48,6.60
2014,01,11,17,49,6.60
2014,01,11,17,50,6.60
2014,01,11,17,51,6.60
2014,01,11,17,52,6.60
2014,01,11,17,53,6.70
2014,01,11,17,54,6.70
2014,01,11,17,55,6.70
2014,01,11,17,56,6.80
2014,01,11,17,57,6.80
2014,01,11,17,58,6.80
2014,01,11,17,59,6.80
2014,01,11,18,00,6.80
2014,01,11,18,01,6.80
2014,01,11,18,02,6.80
2014,01,11,18,03,6.80
2014,01,11,18,04,6.80
2014,01,11,18,05,6.80
2014,01,11,18,06,6.80
2014,01,11,18,07,6.80
2014,01,11,18,08,6.80
2014,01,11,18,09,6.80
2014,01,11,18,10,6.80
2014,01,11,18,11,6.70
2014,01,11,18,12,6.80
2014,01,11,18,13,6.70
2014,01,11,18,14,6.70
2014,01,11,18,15,6.70
2014,01,11,18,16,6.70
2014,01,11,18,17,6.70
2014,01,11,18,18,6.70
2014,01,11,18,19,6.70
2014,01,11,18,20,6.70
2014,01,11,18,21,6.70
2014,01,11,18,22,6.70
2014,01,11,18,23,6.70
2014,01,11,18,24,6.70
2014,01,11,18,25,6.60
2014,01,11,18,26,6.60
2014,01,11,18,27,6.60
2014,01,11,18,28,6.60
2014,01,11,18,29,6.60
2014,01,11,18,30,6.60
2014,01,11,18,31,6.60
2014,01,11,18,32,6.60
2014,01,11,18,33,6.60
2014,01,11,18,34,6.60
2014,01,11,18,35,6.50
2014,01,11,18,36,6.50
2014,01,11,18,37,6.50
2014,01,11,18,38,6.50
2014,01,11,18,39,6.50
2014,01,11,18,40,6.50
2014,01,11,18,41,6.40
2014,01,11,18,42,6.40
2014,01,11,18,43,6.40
2014,01,11,18,44,6.40
2014,01,11,18,45,6.40
2014,01,11,18,46,6.40
2014,01,11,18,47,6.40
2014,01,11,18,48,6.40
2014,01,11,18,49,6.40
2014,01,11,18,50,6.40
2014,01,11,18,51,6.40
2014,01,11,18,52,6.40
2014,01,11,18,53,6.40
2014,01,11,18,54,6.40
2014,01,11,18,55,6.40
2014,01,11,18,56,6.40
2014,01,11,18,57,6.40
2014,01,11,18,58,6.40
2014,01,11,18,59,6.50
2014,01,11,19,00,6.50
2014,01,11,19,01,6.40
2014,01,11,19,02,6.40
2014,01,11,19,03,6.40
2014,01,11,19,04,6.40
2014,01,11,19,05,6.40
2014,01,11,19,06,6.40
2014,01,11,19,07,6.40
2014,01,11,19,08,6.40
2014,01,11,19,09,6.50
2014,01,11,19,10,6.50
2014,01,11,19,11,6.50
2014,01,11,19,12,6.50
2014,01,11,19,13,6.60
2014,01,11,19,14,6.60
2014,01,11,19,15,6.60
2014,01,11,19,16,6.60
2014,01,11,19,17,6.60
2014,01,11,19,18,6.60
2014,01,11,19,19,6.60
2014,01,11,19,20,6.60
2014,01,11,19,21,6.70
2014,01,11,19,22,6.60
2014,01,11,19,23,6.60
2014,01,11,19,24,6.60
2014,01,11,19,25,6.60
2014,01,11,19,26,6.60
2014,01,11,19,27,6.70
2014,01,11,19,28,6.70
2014,01,11,19,29,6.70
2014,01,11,19,30,6.70
2014,01,11,19,31,6.60
2014,01,11,19,32,6.60
2014,01,11,19,33,6.60
2014,01,11,19,34,6.70
2014,01,11,19,35,6.70
2014,01,11,19,36,6.70
2014,01,11,19,37,6.70
2014,01,11,19,38,6.70
2014,01,11,19,39,6.70
2014,01,11,19,40,6.70
2014,01,11,19,41,6.60
2014,01,11,19,42,6.60
2014,01,11,19,43,6.60
2014,01,11,19,44,6.60
2014,01,11,19,45,6.60
2014,01,11,19,46,6.60
2014,01,11,19,47,6.60
2014,01,11,19,48,6.60
2014,01,11,19,49,6.60
2014,01,11,19,50,6.60
2014,01,11,19,51,6.60
2014,01,11,19,52,6.60
2014,01,11,19,53,6.60
2014,01,11,19,54,6.60
2014,01,11,19,55,6.60
2014,01,11,19,56,6.60
2014,01,11,19,57,6.60
2014,01,11,19,58,6.60
2014,01,11,19,59,6.70
2014,01,11,20,00,6.70
2014,01,11,20,01,6.70
2014,01,11,20,02,6.70
2014,01,11,20,03,6.70
2014,01,11,20,04,6.70
2014,01,11,20,05,6.70
2014,01,11,20,06,6.70
2014,01,11,20,07,6.70
2014,01,11,20,08,6.80
2014,01,11,20,09,6.80
2014,01,11,20,10,6.80
2014,01,11,20,11,6.80
2014,01,11,20,12,6.80
2014,01,11,20,13,6.80
2014,01,11,20,14,6.80
2014,01,11,20,15,6.80
2014,01,11,20,16,6.80
2014,01,11,20,17,6.80
2014,01,11,20,18,6.80
2014,01,11,20,19,6.80
2014,01,11,20,20,6.80
2014,01,11,20,21,6.80
2014,01,11,20,22,6.80
2014,01,11,20,23,6.80
2014,01,11,20,24,6.80
2014,01,11,20,25,6.80
2014,01,11,20,26,6.90
2014,01,11,20,27,6.90
2014,01,11,20,28,6.90
2014,01,11,20,29,6.90
2014,01,11,20,30,6.90
2014,01,11,20,31,7.00
2014,01,11,20,32,7.00
2014,01,11,20,33,7.00
2014,01,11,20,34,7.10
2014,01,11,20,35,7.10
2014,01,11,20,36,7.10
2014,01,11,20,37,7.10
2014,01,11,20,38,7.10
2014,01,11,20,39,7.10
2014,01,11,20,40,7.10
2014,01,11,20,41,7.10
2014,01,11,20,42,7.10
2014,01,11,20,43,7.10
2014,01,11,20,44,7.10
2014,01,11,20,45,7.10
2014,01,11,20,46,7.10
2014,01,11,20,47,7.10
2014,01,11,20,48,7.10
2014,01,11,20,49,7.10
2014,01,11,20,50,7.10
2014,01,11,20,51,7.10
2014,01,11,20,52,7.10
2014,01,11,20,53,7.10
2014,01,11,20,54,7.10
2014,01,11,20,55,7.10
2014,01,11,20,56,7.10
2014,01,11,20,57,7.10
2014,01,11,20,58,7.10
2014,01,11,20,59,7.00
2014,01,11,21,00,7.00
2014,01,11,21,01,7.00
2014,01,11,21,02,7.00
2014,01,11,21,03,7.00
2014,01,11,21,04,7.10
2014,01,11,21,05,7.10
2014,01,11,21,06,7.10
2014,01,11,21,07,7.20
2014,01,11,21,08,7.20
2014,01,11,21,09,7.20
2014,01,11,21,10,7.20
2014,01,11,21,11,7.20
2014,01,11,21,12,7.20
2014,01,11,21,13,7.20
2014,01,11,21,14,7.20
2014,01,11,21,15,7.20
2014,01,11,21,16,7.20
2014,01,11,21,17,7.20
2014,01,11,21,18,7.20
2014,01,11,21,19,7.20
2014,01,11,21,20,7.20
2014,01,11,21,21,7.20
2014,01,11,21,22,7.20
2014,01,11,21,23,7.20
2014,01,11,21,24,7.20
2014,01,11,21,25,7.30
2014,01,11,21,26,7.30
2014,01,11,21,27,7.30
2014,01,11,21,28,7.30
2014,01,11,21,29,7.30
2014,01,11,21,30,7.30
2014,01,11,21,31,7.30
2014,01,11,21,32,7.30
2014,01,11,21,33,7.30
2014,01,11,21,34,7.40
2014,01,11,21,35,7.40
2014,01,11,21,36,7.40
2014,01,11,21,37,7.40
2014,01,11,21,38,7.40
2014,01,11,21,39,7.30
2014,01,11,21,40,7.30
2014,01,11,21,41,7.30
2014,01,11,21,42,7.30
2014,01,11,21,43,7.30
2014,01,11,21,44,7.20
2014,01,11,21,45,7.20
2014,01,11,21,46,7.20
2014,01,11,21,47,7.20
2014,01,11,21,48,7.20
2014,01,11,21,49,7.20
2014,01,11,21,50,7.20
2014,01,11,21,51,7.20
2014,01,11,21,52,7.20
2014,01,11,21,53,7.10
2014,01,11,21,54,7.10
2014,01,11,21,55,7.00
2014,01,11,21,56,6.90
2014,01,11,21,57,6.90
2014,01,11,21,58,6.80
2014,01,11,21,59,6.70
2014,01,11,22,00,6.70
2014,01,11,22,01,6.70
2014,01,11,22,02,6.60
2014,01,11,22,03,6.60
2014,01,11,22,04,6.60
2014,01,11,22,05,6.60
2014,01,11,22,06,6.50
2014,01,11,22,07,6.50
2014,01,11,22,08,6.40
2014,01,11,22,09,6.40
2014,01,11,22,10,6.40
2014,01,11,22,11,6.40
2014,01,11,22,12,6.40
2014,01,11,22,13,6.50
2014,01,11,22,14,6.50
2014,01,11,22,15,6.60
2014,01,11,22,16,6.60
2014,01,11,22,17,6.60
2014,01,11,22,18,6.60
2014,01,11,22,19,6.60
2014,01,11,22,20,6.70
2014,01,11,22,21,6.70
2014,01,11,22,22,6.60
2014,01,11,22,23,6.60
2014,01,11,22,24,6.60
2014,01,11,22,25,6.60
2014,01,11,22,26,6.60
2014,01,11,22,27,6.70
2014,01,11,22,28,6.70
2014,01,11,22,29,6.70
2014,01,11,22,30,6.70
2014,01,11,22,31,6.70
2014,01,11,22,32,6.70
2014,01,11,22,33,6.70
2014,01,11,22,34,6.70
2014,01,11,22,35,6.70
2014,01,11,22,36,6.60
2014,01,11,22,37,6.60
2014,01,11,22,38,6.60